AAL629 KDCA-KLGA

Flight info

Callsign AAL629
Flight time 0h 43m
Altitude 25000
Route DOCTR5 AGARD SPEAK PROUD2
Aircraft B38M/M-SDE1FGHILORVWXY/HB1

Departure

Time 2026-05-05 02:25
Airport Ronald Reagan Washington National Airport (KDCA)

Arrival

Time 2026-05-05 03:08
Airport LaGuardia Airport (KLGA)
Time Latitude Longitude Altitude Speed Heading
2026-05-05 02:01 38.85556 -77.04218 26 ft 0 kts 338°
2026-05-05 02:18 38.85536 -77.04209 26 ft 4 kts 356°
2026-05-05 02:18 38.85512 -77.04215 26 ft 4 kts 42°
2026-05-05 02:18 38.85501 -77.04235 26 ft 1 kts 72°
2026-05-05 02:18 38.85500 -77.04240 26 ft 0 kts 72°
2026-05-05 02:22 38.85509 -77.04203 26 ft 9 kts 72°
2026-05-05 02:22 38.85538 -77.04086 26 ft 18 kts 72°
2026-05-05 02:22 38.85625 -77.04042 27 ft 14 kts 347°
2026-05-05 02:23 38.85754 -77.04053 28 ft 21 kts 356°
2026-05-05 02:23 38.85906 -77.04059 27 ft 16 kts 15°
2026-05-05 02:23 38.85936 -77.04016 27 ft 8 kts 79°
2026-05-05 02:23 38.85984 -77.03962 27 ft 12 kts 15°
2026-05-05 02:24 38.86052 -77.03936 26 ft 12 kts 19°
2026-05-05 02:24 38.86092 -77.03883 27 ft 4 kts 126°
2026-05-05 02:24 38.86051 -77.03867 27 ft 8 kts 180°
2026-05-05 02:24 38.85928 -77.03854 28 ft 46 kts 176°
2026-05-05 02:25 38.85356 -77.03797 26 ft 119 kts 176°
2026-05-05 02:25 38.84335 -77.03689 209 ft 166 kts 176°
2026-05-05 02:25 38.83149 -77.03564 978 ft 174 kts 177°
2026-05-05 02:25 38.81937 -77.03339 2033 ft 179 kts 177°
2026-05-05 02:26 38.80626 -77.03037 2707 ft 204 kts 176°
2026-05-05 02:26 38.79158 -77.02705 3519 ft 224 kts 176°
2026-05-05 02:26 38.77568 -77.02305 4380 ft 245 kts 168°
2026-05-05 02:26 38.76037 -77.01075 5168 ft 279 kts 137°
2026-05-05 02:27 38.75133 -76.98833 6087 ft 296 kts 100°
2026-05-05 02:27 38.75118 -76.96192 7197 ft 301 kts 87°
2026-05-05 02:27 38.75309 -76.93493 8142 ft 306 kts 70°
2026-05-05 02:27 38.76328 -76.91192 9282 ft 295 kts 40°
2026-05-05 02:28 38.77948 -76.89637 10264 ft 292 kts 25°
2026-05-05 02:28 38.79727 -76.88226 10897 ft 310 kts 26°
2026-05-05 02:28 38.81623 -76.86724 11412 ft 331 kts 26°
2026-05-05 02:28 38.83642 -76.85139 11947 ft 348 kts 26°
2026-05-05 02:29 38.85672 -76.83328 12570 ft 367 kts 39°
2026-05-05 02:29 38.87187 -76.80714 13537 ft 376 kts 59°
2026-05-05 02:29 38.88356 -76.77675 14266 ft 383 kts 61°
2026-05-05 02:29 38.89530 -76.74588 15050 ft 386 kts 62°
2026-05-05 02:30 38.90706 -76.71468 15837 ft 390 kts 63°
2026-05-05 02:30 38.91888 -76.68320 16605 ft 393 kts 63°
2026-05-05 02:30 38.93078 -76.65143 17363 ft 397 kts 64°
2026-05-05 02:30 38.94261 -76.61929 18102 ft 400 kts 66°
2026-05-05 02:31 38.95340 -76.58623 18749 ft 403 kts 67°
2026-05-05 02:31 38.96417 -76.55332 19362 ft 406 kts 67°
2026-05-05 02:31 38.97521 -76.51976 19975 ft 410 kts 66°
2026-05-05 02:31 38.98637 -76.48583 20582 ft 413 kts 67°
2026-05-05 02:32 38.99758 -76.45179 21174 ft 416 kts 67°
2026-05-05 02:32 39.00819 -76.41697 21747 ft 420 kts 75°
2026-05-05 02:32 39.01285 -76.37990 22347 ft 423 kts 83°
2026-05-05 02:32 39.01680 -76.34221 22872 ft 427 kts 82°
2026-05-05 02:33 39.02069 -76.30423 23456 ft 430 kts 82°
2026-05-05 02:33 39.02450 -76.26590 23941 ft 433 kts 83°
2026-05-05 02:33 39.02824 -76.22782 24405 ft 436 kts 83°
2026-05-05 02:33 39.03203 -76.18899 24808 ft 441 kts 83°
2026-05-05 02:34 39.03586 -76.14961 24916 ft 448 kts 83°
2026-05-05 02:34 39.03976 -76.10938 24916 ft 458 kts 83°
2026-05-05 02:34 39.04323 -76.06828 24920 ft 466 kts 86°
2026-05-05 02:34 39.04500 -76.02629 24944 ft 472 kts 86°
2026-05-05 02:35 39.04694 -75.98413 24936 ft 472 kts 86°
2026-05-05 02:35 39.04895 -75.94247 24938 ft 472 kts 86°
2026-05-05 02:35 39.05100 -75.90030 24936 ft 473 kts 86°
2026-05-05 02:35 39.05304 -75.85812 24936 ft 472 kts 86°
2026-05-05 02:36 39.05508 -75.81597 24935 ft 472 kts 86°
2026-05-05 02:36 39.06057 -75.77444 24923 ft 471 kts 72°
2026-05-05 02:36 39.07355 -75.73590 24926 ft 469 kts 57°
2026-05-05 02:36 39.09336 -75.70284 24939 ft 467 kts 46°
2026-05-05 02:37 39.11534 -75.67200 24934 ft 467 kts 45°
2026-05-05 02:37 39.13765 -75.64154 24939 ft 467 kts 45°
2026-05-05 02:37 39.16011 -75.61128 24937 ft 467 kts 45°
2026-05-05 02:37 39.18237 -75.58157 24934 ft 467 kts 44°
2026-05-05 02:38 39.20585 -75.55031 24934 ft 467 kts 44°
2026-05-05 02:38 39.22775 -75.52165 24929 ft 466 kts 40°
2026-05-05 02:38 39.24189 -75.50718 24925 ft 464 kts 33°
2026-05-05 02:38 39.28091 -75.47254 24924 ft 464 kts 33°
2026-05-05 02:39 39.30677 -75.44947 24931 ft 464 kts 33°
2026-05-05 02:39 39.33339 -75.42580 24943 ft 464 kts 33°
2026-05-05 02:39 39.35983 -75.40230 24809 ft 457 kts 32°
2026-05-05 02:39 39.38581 -75.37919 24563 ft 450 kts 32°
2026-05-05 02:40 39.41107 -75.35671 24198 ft 444 kts 32°
2026-05-05 02:40 39.43653 -75.33404 23419 ft 445 kts 32°
2026-05-05 02:40 39.46203 -75.31129 22663 ft 444 kts 32°
2026-05-05 02:40 39.48730 -75.28874 22075 ft 439 kts 32°
2026-05-05 02:41 39.51202 -75.26617 21724 ft 429 kts 34°
2026-05-05 02:41 39.53615 -75.24355 21442 ft 430 kts 33°
2026-05-05 02:41 39.56046 -75.22082 21112 ft 431 kts 33°
2026-05-05 02:41 39.58474 -75.19814 20735 ft 430 kts 33°
2026-05-05 02:42 39.60892 -75.17553 20360 ft 428 kts 33°
2026-05-05 02:42 39.63270 -75.15328 19989 ft 427 kts 33°
2026-05-05 02:42 39.65673 -75.13078 19608 ft 425 kts 33°
2026-05-05 02:42 39.68092 -75.10891 19185 ft 423 kts 31°
2026-05-05 02:43 39.70542 -75.08797 18814 ft 421 kts 31°
2026-05-05 02:43 39.72984 -75.06693 18458 ft 420 kts 31°
2026-05-05 02:43 39.75407 -75.04599 18064 ft 417 kts 31°
2026-05-05 02:43 39.77813 -75.02513 17670 ft 414 kts 31°
2026-05-05 02:44 39.80198 -75.00443 17323 ft 411 kts 31°
2026-05-05 02:44 39.82568 -74.98385 16979 ft 409 kts 31°
2026-05-05 02:44 39.84895 -74.96345 16597 ft 407 kts 32°
2026-05-05 02:44 39.87216 -74.94250 16222 ft 404 kts 32°
2026-05-05 02:45 39.89520 -74.92173 15874 ft 402 kts 32°
2026-05-05 02:45 39.91803 -74.90078 15523 ft 401 kts 36°
2026-05-05 02:45 39.93765 -74.87498 15150 ft 401 kts 45°
2026-05-05 02:45 39.95650 -74.84826 14785 ft 399 kts 45°
2026-05-05 02:46 39.97522 -74.82163 14442 ft 397 kts 45°
2026-05-05 02:46 39.99375 -74.79515 14079 ft 393 kts 45°
2026-05-05 02:46 40.01200 -74.76904 13752 ft 386 kts 45°
2026-05-05 02:46 40.02992 -74.74337 13374 ft 380 kts 45°
2026-05-05 02:47 40.04732 -74.71839 12998 ft 373 kts 45°
2026-05-05 02:47 40.06435 -74.69394 12679 ft 355 kts 45°
2026-05-05 02:47 40.08055 -74.67067 12385 ft 338 kts 44°
2026-05-05 02:47 40.09599 -74.64846 12090 ft 323 kts 44°
2026-05-05 02:48 40.11081 -74.62714 11767 ft 312 kts 44°
2026-05-05 02:48 40.12514 -74.60651 11501 ft 303 kts 44°
2026-05-05 02:48 40.13920 -74.58625 11239 ft 300 kts 44°
2026-05-05 02:48 40.15305 -74.56628 11057 ft 293 kts 44°
2026-05-05 02:49 40.16656 -74.54679 10901 ft 285 kts 44°
2026-05-05 02:49 40.17984 -74.52763 10773 ft 287 kts 43°
2026-05-05 02:49 40.19346 -74.50796 10641 ft 294 kts 43°
2026-05-05 02:49 40.20770 -74.48857 10515 ft 296 kts 39°
2026-05-05 02:50 40.22285 -74.46963 10387 ft 296 kts 39°
2026-05-05 02:50 40.23740 -74.45129 10261 ft 296 kts 39°
2026-05-05 02:50 40.25194 -74.43287 10136 ft 295 kts 39°
2026-05-05 02:50 40.26665 -74.41415 10010 ft 295 kts 40°
2026-05-05 02:51 40.28130 -74.39548 9881 ft 294 kts 39°
2026-05-05 02:51 40.29603 -74.37681 9763 ft 295 kts 39°
2026-05-05 02:51 40.31080 -74.35815 9628 ft 295 kts 39°
2026-05-05 02:51 40.32554 -74.33949 9494 ft 294 kts 40°
2026-05-05 02:52 40.34019 -74.32094 9361 ft 292 kts 40°
2026-05-05 02:52 40.35481 -74.30241 9233 ft 292 kts 40°
2026-05-05 02:52 40.36940 -74.28391 9099 ft 292 kts 40°
2026-05-05 02:52 40.38395 -74.26544 8974 ft 291 kts 40°
2026-05-05 02:53 40.39831 -74.24721 8836 ft 291 kts 40°
2026-05-05 02:53 40.41285 -74.22873 8715 ft 291 kts 40°
2026-05-05 02:53 40.42735 -74.21030 8596 ft 290 kts 40°
2026-05-05 02:53 40.44185 -74.19185 8471 ft 290 kts 40°
2026-05-05 02:54 40.45633 -74.17342 8353 ft 290 kts 40°
2026-05-05 02:54 40.47080 -74.15497 8245 ft 290 kts 40°
2026-05-05 02:54 40.48526 -74.13655 8150 ft 290 kts 40°
2026-05-05 02:54 40.49977 -74.11804 8147 ft 291 kts 40°
2026-05-05 02:55 40.51429 -74.09952 8146 ft 291 kts 40°
2026-05-05 02:55 40.52999 -74.08375 8135 ft 287 kts 28°
2026-05-05 02:55 40.54688 -74.06976 8148 ft 287 kts 28°
2026-05-05 02:55 40.56374 -74.05564 8153 ft 287 kts 28°
2026-05-05 02:56 40.58043 -74.04119 8154 ft 288 kts 32°
2026-05-05 02:56 40.59733 -74.02753 8138 ft 281 kts 14°
2026-05-05 02:56 40.61613 -74.02402 8133 ft 270 kts 351°
2026-05-05 02:56 40.63473 -74.02649 8152 ft 270 kts 347°
2026-05-05 02:57 40.65345 -74.02948 8148 ft 270 kts 347°
2026-05-05 02:57 40.67224 -74.03252 7699 ft 278 kts 347°
2026-05-05 02:57 40.69189 -74.03574 7049 ft 290 kts 347°
2026-05-05 02:57 40.71231 -74.03920 6416 ft 301 kts 347°
2026-05-05 02:58 40.73320 -74.04199 5749 ft 312 kts 356°
2026-05-05 02:58 40.75449 -74.03579 5059 ft 319 kts 20°
2026-05-05 02:58 40.77386 -74.02190 4503 ft 316 kts 27°
2026-05-05 02:58 40.79272 -74.00754 4009 ft 308 kts 27°
2026-05-05 02:59 40.81107 -73.99357 3617 ft 298 kts 27°
2026-05-05 02:59 40.82857 -73.98026 3416 ft 283 kts 27°
2026-05-05 02:59 40.84552 -73.96745 3187 ft 279 kts 27°
2026-05-05 02:59 40.86225 -73.95489 3019 ft 272 kts 27°
2026-05-05 03:00 40.87806 -73.94314 3013 ft 251 kts 27°
2026-05-05 03:00 40.89283 -73.93212 2988 ft 239 kts 27°
2026-05-05 03:00 40.90725 -73.92133 3010 ft 237 kts 27°
2026-05-05 03:00 40.92140 -73.91065 3131 ft 238 kts 27°
2026-05-05 03:01 40.93579 -73.89978 3100 ft 238 kts 27°
2026-05-05 03:01 40.95008 -73.88893 3026 ft 237 kts 31°
2026-05-05 03:01 40.96111 -73.87300 2861 ft 237 kts 66°
2026-05-05 03:01 40.96433 -73.85256 2622 ft 220 kts 102°
2026-05-05 03:02 40.96085 -73.83366 2371 ft 208 kts 116°
2026-05-05 03:02 40.95621 -73.81572 2090 ft 203 kts 117°
2026-05-05 03:02 40.95181 -73.79844 1937 ft 193 kts 117°
2026-05-05 03:02 40.94795 -73.78265 1910 ft 175 kts 117°
2026-05-05 03:03 40.94405 -73.76891 1872 ft 151 kts 137°
2026-05-05 03:03 40.93633 -73.76212 1793 ft 126 kts 182°
2026-05-05 03:03 40.92810 -73.76406 1973 ft 122 kts 197°
2026-05-05 03:03 40.91965 -73.76712 2031 ft 127 kts 201°
2026-05-05 03:04 40.91137 -73.77115 1999 ft 126 kts 205°
2026-05-05 03:04 40.90338 -73.77591 1979 ft 126 kts 208°
2026-05-05 03:04 40.89557 -73.78121 1913 ft 128 kts 210°
2026-05-05 03:04 40.88781 -73.78704 1606 ft 126 kts 210°
2026-05-05 03:05 40.88038 -73.79274 1591 ft 126 kts 211°
2026-05-05 03:05 40.87285 -73.79873 1720 ft 125 kts 212°
2026-05-05 03:05 40.86542 -73.80475 1851 ft 127 kts 212°
2026-05-05 03:05 40.85812 -73.81070 1702 ft 123 kts 212°
2026-05-05 03:06 40.85069 -73.81679 1379 ft 122 kts 212°
2026-05-05 03:06 40.84364 -73.82266 1629 ft 125 kts 212°
2026-05-05 03:06 40.83629 -73.82875 1444 ft 123 kts 212°
2026-05-05 03:06 40.82894 -73.83475 1148 ft 125 kts 212°
2026-05-05 03:07 40.82160 -73.84099 931 ft 126 kts 212°
2026-05-05 03:07 40.81396 -73.84715 748 ft 132 kts 212°
2026-05-05 03:07 40.80611 -73.85374 477 ft 134 kts 209°
2026-05-05 03:07 40.79812 -73.86020 276 ft 137 kts 210°
2026-05-05 03:08 40.79021 -73.86679 167 ft 136 kts 209°
2026-05-05 03:08 40.78232 -73.87334 35 ft 126 kts 211°
2026-05-05 03:08 40.77578 -73.87870 27 ft 90 kts 211°
2026-05-05 03:08 40.77259 -73.88131 27 ft 15 kts 212°
2026-05-05 03:09 40.77182 -73.88198 25 ft 19 kts 214°
2026-05-05 03:09 40.77079 -73.88244 28 ft 14 kts 170°
2026-05-05 03:09 40.77047 -73.88172 26 ft 11 kts 83°
2026-05-05 03:09 40.77136 -73.88083 24 ft 23 kts 32°
2026-05-05 03:10 40.77269 -73.87973 27 ft 17 kts 32°
2026-05-05 03:10 40.77382 -73.87879 23 ft 20 kts 33°
2026-05-05 03:10 40.77507 -73.87776 23 ft 23 kts 32°
2026-05-05 03:10 40.77537 -73.87695 22 ft 5 kts 122°
2026-05-05 03:11 40.77511 -73.87638 22 ft 10 kts 121°
2026-05-05 03:11 40.77462 -73.87534 22 ft 17 kts 121°
2026-05-05 03:11 40.77431 -73.87388 24 ft 7 kts 95°
2026-05-05 03:11 40.77430 -73.87285 22 ft 15 kts 91°
2026-05-05 03:12 40.77417 -73.87159 24 ft 7 kts 63°
2026-05-05 03:12 40.77478 -73.87103 23 ft 14 kts 30°
2026-05-05 03:12 40.77517 -73.87083 22 ft 3 kts 328°
2026-05-05 03:12 40.77536 -73.87113 22 ft 1 kts 302°
2026-05-05 03:13 40.77541 -73.87124 22 ft 2 kts 302°
2026-05-05 03:13 40.77543 -73.87130 22 ft 0 kts 302°